Location: ??????
(36.0418°N, 43.6351°E)
Time: 20:58:54
(UTC+00:00)

USA 234 - Pass Details

Date: 07 March 2021
Orbit: 1102 x 1105 km, 123.0° (Epoch: 18 April)

Event Time Altitude Azimuth Distance (km) Brightness Sun altitude
Rises 01:51:50 0° 157° (SSE) 3,905 6.3 -20.2°
Reaches altitude 10° 01:54:29 10° 165° (SSE) 2,950 5.6 -19.6°
Maximum altitude 02:00:31 40° 233° (SW) 1,566 3.6 -18.4°
Enters shadow 02:03:55 24° 286° (WNW) 2,110 4.2 -17.7°
